Time,TemperatureF,DewpointF,PressureIn,WindDirection,WindDirectionDegrees,WindSpeedMPH,WindSpeedGustMPH,Humidity,HourlyPrecipIn,Conditions,Clouds,dailyrainin,SolarRadiationWatts/m^2,SoftwareType,DateUTC
2013-01-18 00:12:00,21.0,10.0,-100.00,WNW,286,2.0,11.0,61,0.00,,,0.02,0.000000,,2013-01-18 07:12:00,
2013-01-18 00:22:00,21.0,10.0,-100.00,WNW,286,2.0,11.0,61,0.00,,,0.02,0.000000,,2013-01-18 07:22:00,
2013-01-18 00:32:00,21.0,10.0,-100.00,WNW,286,2.0,11.0,61,0.00,,,0.02,0.000000,,2013-01-18 07:32:00,
2013-01-18 00:42:00,21.0,10.0,-100.00,WNW,286,2.0,11.0,61,0.00,,,0.02,0.000000,,2013-01-18 07:42:00,
2013-01-18 00:52:00,20.0,8.0,-100.00,WNW,282,2.0,7.0,60,0.00,,,0.02,0.000000,,2013-01-18 07:52:00,
2013-01-18 01:12:00,20.0,8.0,-100.00,WNW,282,2.0,7.0,60,0.00,,,0.02,0.000000,,2013-01-18 08:12:00,
2013-01-18 01:22:00,20.0,8.0,-100.00,WNW,282,2.0,7.0,60,0.00,,,0.02,0.000000,,2013-01-18 08:22:00,
2013-01-18 01:32:00,20.0,8.0,-100.00,WNW,282,2.0,7.0,60,0.00,,,0.02,0.000000,,2013-01-18 08:32:00,
2013-01-18 01:42:00,20.0,8.0,-100.00,WNW,282,2.0,7.0,60,0.00,,,0.02,0.000000,,2013-01-18 08:42:00,
2013-01-18 01:52:00,20.0,8.0,-100.00,WNW,287,3.0,8.0,59,0.00,,,-99.99,0.000000,,2013-01-18 08:52:00,
2013-01-18 02:12:00,20.0,8.0,-100.00,WNW,287,3.0,8.0,59,0.00,,,-99.99,0.000000,,2013-01-18 09:12:00,
2013-01-18 02:22:00,20.0,8.0,-100.00,WNW,287,3.0,8.0,59,0.00,,,-99.99,0.000000,,2013-01-18 09:22:00,
2013-01-18 02:33:00,20.0,8.0,-100.00,WNW,287,3.0,8.0,59,0.00,,,-99.99,0.000000,,2013-01-18 09:33:00,
2013-01-18 02:42:00,20.0,8.0,-100.00,WNW,287,3.0,8.0,59,0.00,,,-99.99,0.000000,,2013-01-18 09:42:00,
2013-01-18 02:52:00,20.0,9.0,-100.00,WNW,291,2.0,8.0,62,0.00,,,0.02,0.000000,,2013-01-18 09:52:00,
2013-01-18 03:12:00,20.0,9.0,-100.00,WNW,291,2.0,8.0,62,0.00,,,0.02,0.000000,,2013-01-18 10:12:00,
2013-01-18 03:22:00,20.0,9.0,-100.00,WNW,291,2.0,8.0,62,0.00,,,0.02,0.000000,,2013-01-18 10:22:00,
2013-01-18 03:32:00,20.0,9.0,-100.00,WNW,291,2.0,8.0,62,0.00,,,0.02,0.000000,,2013-01-18 10:32:00,
2013-01-18 03:42:00,20.0,9.0,-100.00,WNW,291,2.0,8.0,62,0.00,,,0.02,0.000000,,2013-01-18 10:42:00,
2013-01-18 03:52:00,18.0,6.0,-100.00,West,259,3.0,15.0,59,0.00,,,0.02,0.000000,,2013-01-18 10:52:00,
2013-01-18 04:12:00,18.0,6.0,-100.00,West,259,3.0,15.0,59,0.00,,,0.02,0.000000,,2013-01-18 11:12:00,
2013-01-18 04:23:00,18.0,6.0,-100.00,West,259,3.0,15.0,59,0.00,,,0.02,0.000000,,2013-01-18 11:23:00,
2013-01-18 04:32:00,18.0,6.0,-100.00,West,259,3.0,15.0,59,0.00,,,0.02,0.000000,,2013-01-18 11:32:00,
2013-01-18 04:42:00,18.0,6.0,-100.00,West,259,3.0,15.0,59,0.00,,,0.02,0.000000,,2013-01-18 11:42:00,
2013-01-18 04:52:00,19.0,6.0,-100.00,WSW,255,3.0,10.0,56,0.00,,,0.02,0.000000,,2013-01-18 11:52:00,
2013-01-18 05:12:00,19.0,6.0,-100.00,WSW,255,3.0,10.0,56,0.00,,,0.02,0.000000,,2013-01-18 12:12:00,
2013-01-18 05:22:00,19.0,6.0,-100.00,WSW,255,3.0,10.0,56,0.00,,,0.02,0.000000,,2013-01-18 12:22:00,
2013-01-18 05:33:00,19.0,6.0,-100.00,WSW,255,3.0,10.0,56,0.00,,,0.02,0.000000,,2013-01-18 12:33:00,
2013-01-18 05:43:00,19.0,6.0,-100.00,WSW,255,3.0,10.0,56,0.00,,,0.02,0.000000,,2013-01-18 12:43:00,
2013-01-18 05:52:00,19.0,6.0,-100.00,WSW,248,3.0,11.0,57,0.00,,,0.02,0.000000,,2013-01-18 12:52:00,
2013-01-18 06:12:00,19.0,6.0,-100.00,WSW,248,3.0,11.0,57,0.00,,,0.02,0.000000,,2013-01-18 13:12:00,
2013-01-18 06:23:00,19.0,6.0,-100.00,WSW,248,3.0,11.0,57,0.00,,,0.02,0.000000,,2013-01-18 13:23:00,
2013-01-18 06:33:00,19.0,6.0,-100.00,WSW,248,3.0,11.0,57,0.00,,,0.02,0.000000,,2013-01-18 13:33:00,
2013-01-18 06:43:00,19.0,6.0,-100.00,WSW,248,3.0,11.0,57,0.00,,,0.02,0.000000,,2013-01-18 13:43:00,
2013-01-18 06:52:00,18.0,5.0,-100.00,SW,235,4.0,10.0,55,0.00,,,0.02,0.000000,,2013-01-18 13:52:00,
2013-01-18 07:23:00,18.0,5.0,-100.00,SW,235,4.0,10.0,55,0.00,,,0.02,0.000000,,2013-01-18 14:23:00,
2013-01-18 07:33:00,18.0,5.0,-100.00,SW,235,4.0,10.0,55,0.00,,,0.02,0.000000,,2013-01-18 14:33:00,
2013-01-18 07:42:00,18.0,5.0,-100.00,SW,235,4.0,10.0,55,0.00,,,0.02,0.000000,,2013-01-18 14:42:00,
2013-01-18 07:52:00,19.0,4.0,-100.00,WSW,238,5.0,9.0,51,0.00,,,0.02,0.000000,,2013-01-18 14:52:00,
2013-01-18 08:13:00,19.0,4.0,-100.00,WSW,238,5.0,9.0,51,0.00,,,0.02,0.000000,,2013-01-18 15:13:00,
2013-01-18 08:23:00,19.0,4.0,-100.00,WSW,238,5.0,9.0,51,0.00,,,0.02,0.000000,,2013-01-18 15:23:00,
2013-01-18 08:33:00,19.0,4.0,-100.00,WSW,238,5.0,9.0,51,0.00,,,0.02,0.000000,,2013-01-18 15:33:00,
2013-01-18 08:43:00,19.0,4.0,-100.00,WSW,238,5.0,9.0,51,0.00,,,0.02,0.000000,,2013-01-18 15:43:00,
2013-01-18 08:52:00,21.0,1.0,-100.00,SW,216,8.0,12.0,41,0.00,,,0.02,5.000000,,2013-01-18 15:52:00,
2013-01-18 09:12:00,21.0,1.0,-100.00,SW,216,8.0,12.0,41,0.00,,,0.02,5.000000,,2013-01-18 16:12:00,
2013-01-18 09:23:00,21.0,1.0,-100.00,SW,216,8.0,12.0,41,0.00,,,0.02,5.000000,,2013-01-18 16:23:00,
2013-01-18 09:33:00,21.0,1.0,-100.00,SW,216,8.0,12.0,41,0.00,,,0.02,5.000000,,2013-01-18 16:33:00,
2013-01-18 09:42:00,21.0,1.0,-100.00,SW,216,8.0,12.0,41,0.00,,,0.02,5.000000,,2013-01-18 16:42:00,
2013-01-18 09:52:00,25.0,1.0,-100.00,WSW,247,8.0,14.0,34,0.00,,,-99.99,137.000000,,2013-01-18 16:52:00,
2013-01-18 10:13:00,25.0,1.0,-100.00,WSW,247,8.0,14.0,34,0.00,,,-99.99,137.000000,,2013-01-18 17:13:00,
2013-01-18 10:23:00,25.0,1.0,-100.00,WSW,247,8.0,14.0,34,0.00,,,-99.99,137.000000,,2013-01-18 17:23:00,
2013-01-18 10:33:00,25.0,1.0,-100.00,WSW,247,8.0,14.0,34,0.00,,,-99.99,137.000000,,2013-01-18 17:33:00,
2013-01-18 10:42:00,25.0,1.0,-100.00,WSW,247,8.0,14.0,34,0.00,,,-99.99,137.000000,,2013-01-18 17:42:00,
2013-01-18 10:52:00,29.0,3.0,-100.00,SW,234,7.0,18.0,32,0.00,,,0.02,313.000000,,2013-01-18 17:52:00,
2013-01-18 11:13:00,29.0,3.0,-100.00,SW,234,7.0,18.0,32,0.00,,,0.02,313.000000,,2013-01-18 18:13:00,
2013-01-18 11:23:00,29.0,3.0,-100.00,SW,234,7.0,18.0,32,0.00,,,0.02,313.000000,,2013-01-18 18:23:00,
2013-01-18 11:33:00,29.0,3.0,-100.00,SW,234,7.0,18.0,32,0.00,,,0.02,313.000000,,2013-01-18 18:33:00,
2013-01-18 11:43:00,29.0,3.0,-100.00,SW,234,7.0,18.0,32,0.00,,,0.02,313.000000,,2013-01-18 18:43:00,
2013-01-18 11:52:00,33.0,6.0,-100.00,SW,228,11.0,17.0,32,0.00,,,0.02,451.000000,,2013-01-18 18:52:00,
2013-01-18 12:12:00,33.0,6.0,-100.00,SW,228,11.0,17.0,32,0.00,,,0.02,451.000000,,2013-01-18 19:12:00,
2013-01-18 12:23:00,33.0,6.0,-100.00,SW,228,11.0,17.0,32,0.00,,,0.02,451.000000,,2013-01-18 19:23:00,
2013-01-18 12:33:00,33.0,6.0,-100.00,SW,228,11.0,17.0,32,0.00,,,0.02,451.000000,,2013-01-18 19:33:00,
2013-01-18 12:43:00,33.0,6.0,-100.00,SW,228,11.0,17.0,32,0.00,,,0.02,451.000000,,2013-01-18 19:43:00,
2013-01-18 12:52:00,33.0,8.0,-100.00,SW,226,13.0,22.0,34,0.00,,,0.02,540.000000,,2013-01-18 19:52:00,
2013-01-18 13:13:00,33.0,8.0,-100.00,SW,226,13.0,22.0,34,0.00,,,0.02,540.000000,,2013-01-18 20:13:00,
2013-01-18 13:23:00,33.0,8.0,-100.00,SW,226,13.0,22.0,34,0.00,,,0.02,540.000000,,2013-01-18 20:23:00,
2013-01-18 13:33:00,33.0,8.0,-100.00,SW,226,13.0,22.0,34,0.00,,,0.02,540.000000,,2013-01-18 20:33:00,
2013-01-18 13:42:00,33.0,8.0,-100.00,SW,226,13.0,22.0,34,0.00,,,0.02,540.000000,,2013-01-18 20:42:00,
2013-01-18 13:52:00,33.0,7.0,-100.00,SW,217,10.0,22.0,33,0.00,,,0.02,569.000000,,2013-01-18 20:52:00,
2013-01-18 14:23:00,33.0,7.0,-100.00,SW,217,10.0,22.0,33,0.00,,,0.02,569.000000,,2013-01-18 21:23:00,
2013-01-18 14:33:00,33.0,7.0,-100.00,SW,217,10.0,22.0,33,0.00,,,0.02,569.000000,,2013-01-18 21:33:00,
2013-01-18 14:42:00,33.0,7.0,-100.00,SW,217,10.0,22.0,33,0.00,,,0.02,569.000000,,2013-01-18 21:42:00,
2013-01-18 14:52:00,33.0,6.0,-100.00,SW,236,10.0,18.0,32,0.00,,,0.00,529.000000,,2013-01-18 21:52:00,
2013-01-18 15:12:00,33.0,6.0,-100.00,SW,236,10.0,18.0,32,0.00,,,0.00,529.000000,,2013-01-18 22:12:00,
2013-01-18 15:23:00,33.0,6.0,-100.00,SW,236,10.0,18.0,32,0.00,,,0.00,529.000000,,2013-01-18 22:23:00,
2013-01-18 15:33:00,33.0,6.0,-100.00,SW,236,10.0,18.0,32,0.00,,,0.00,529.000000,,2013-01-18 22:33:00,
2013-01-18 15:42:00,33.0,6.0,-100.00,SW,236,10.0,18.0,32,0.00,,,0.00,529.000000,,2013-01-18 22:42:00,
2013-01-18 15:52:00,35.0,9.0,-100.00,SW,229,10.0,20.0,34,0.00,,,0.00,433.000000,,2013-01-18 22:52:00,
2013-01-18 16:12:00,35.0,9.0,-100.00,SW,229,10.0,20.0,34,0.00,,,0.00,433.000000,,2013-01-18 23:12:00,
2013-01-18 16:22:00,35.0,9.0,-100.00,SW,229,10.0,20.0,34,0.00,,,0.00,433.000000,,2013-01-18 23:22:00,
2013-01-18 16:33:00,35.0,9.0,-100.00,SW,229,10.0,20.0,34,0.00,,,0.00,433.000000,,2013-01-18 23:33:00,
2013-01-18 16:43:00,35.0,9.0,-100.00,SW,229,10.0,20.0,34,0.00,,,0.00,433.000000,,2013-01-18 23:43:00,
2013-01-18 16:52:00,35.0,16.0,-100.00,WSW,240,7.0,20.0,46,0.00,,,-99.99,304.000000,,2013-01-18 23:52:00,
2013-01-18 17:12:00,35.0,16.0,-100.00,WSW,240,7.0,20.0,46,0.00,,,-99.99,304.000000,,2013-01-19 00:12:00,
2013-01-18 17:23:00,35.0,16.0,-100.00,WSW,240,7.0,20.0,46,0.00,,,-99.99,304.000000,,2013-01-19 00:23:00,
2013-01-18 17:33:00,35.0,16.0,-100.00,WSW,240,7.0,20.0,46,0.00,,,-99.99,304.000000,,2013-01-19 00:33:00,
2013-01-18 17:43:00,35.0,16.0,-100.00,WSW,240,7.0,20.0,46,0.00,,,-99.99,304.000000,,2013-01-19 00:43:00,
2013-01-18 17:52:00,31.0,15.0,-100.00,WSW,243,7.0,21.0,51,0.00,,,0.00,131.000000,,2013-01-19 00:52:00,
2013-01-18 18:22:00,31.0,15.0,-100.00,WSW,243,7.0,21.0,51,0.00,,,0.00,131.000000,,2013-01-19 01:22:00,
2013-01-18 18:32:00,31.0,15.0,-100.00,WSW,243,7.0,21.0,51,0.00,,,0.00,131.000000,,2013-01-19 01:32:00,
2013-01-18 18:42:00,31.0,15.0,-100.00,WSW,243,7.0,21.0,51,0.00,,,0.00,131.000000,,2013-01-19 01:42:00,
2013-01-18 18:52:00,26.0,11.0,-100.00,WSW,247,4.0,17.0,52,0.00,,,0.00,3.000000,,2013-01-19 01:52:00,
2013-01-18 19:12:00,26.0,11.0,-100.00,WSW,247,4.0,17.0,52,0.00,,,0.00,3.000000,,2013-01-19 02:12:00,
2013-01-18 19:22:00,26.0,11.0,-100.00,WSW,247,4.0,17.0,52,0.00,,,0.00,3.000000,,2013-01-19 02:22:00,
2013-01-18 19:33:00,26.0,11.0,-100.00,WSW,247,4.0,17.0,52,0.00,,,0.00,3.000000,,2013-01-19 02:33:00,
2013-01-18 19:42:00,26.0,11.0,-100.00,WSW,247,4.0,17.0,52,0.00,,,0.00,3.000000,,2013-01-19 02:42:00,
2013-01-18 19:52:00,25.0,12.0,-100.00,WNW,283,3.0,16.0,56,0.00,,,0.00,0.000000,,2013-01-19 02:52:00,
2013-01-18 20:12:00,25.0,12.0,-100.00,WNW,283,3.0,16.0,56,0.00,,,0.00,0.000000,,2013-01-19 03:12:00,
2013-01-18 20:22:00,25.0,12.0,-100.00,WNW,283,3.0,16.0,56,0.00,,,0.00,0.000000,,2013-01-19 03:22:00,
2013-01-18 20:33:00,25.0,12.0,-100.00,WNW,283,3.0,16.0,56,0.00,,,0.00,0.000000,,2013-01-19 03:33:00,
2013-01-18 20:43:00,25.0,12.0,-100.00,WNW,283,3.0,16.0,56,0.00,,,0.00,0.000000,,2013-01-19 03:43:00,
2013-01-18 20:52:00,24.0,9.0,-100.00,WNW,300,5.0,9.0,51,0.00,,,0.00,0.000000,,2013-01-19 03:52:00,
2013-01-18 21:12:00,24.0,9.0,-100.00,WNW,300,5.0,9.0,51,0.00,,,0.00,0.000000,,2013-01-19 04:12:00,
2013-01-18 21:22:00,24.0,9.0,-100.00,WNW,300,5.0,9.0,51,0.00,,,0.00,0.000000,,2013-01-19 04:22:00,
2013-01-18 21:32:00,24.0,9.0,-100.00,WNW,300,5.0,9.0,51,0.00,,,0.00,0.000000,,2013-01-19 04:32:00,
2013-01-18 21:42:00,24.0,9.0,-100.00,WNW,300,5.0,9.0,51,0.00,,,0.00,0.000000,,2013-01-19 04:42:00,
2013-01-18 21:52:00,26.0,9.0,-100.00,WNW,295,4.0,12.0,49,0.00,,,0.00,0.000000,,2013-01-19 04:52:00,
2013-01-18 22:12:00,26.0,9.0,-100.00,WNW,295,4.0,12.0,49,0.00,,,0.00,0.000000,,2013-01-19 05:12:00,
2013-01-18 22:23:00,26.0,9.0,-100.00,WNW,295,4.0,12.0,49,0.00,,,0.00,0.000000,,2013-01-19 05:23:00,
2013-01-18 22:33:00,26.0,9.0,-100.00,WNW,295,4.0,12.0,49,0.00,,,0.00,0.000000,,2013-01-19 05:33:00,
2013-01-18 22:42:00,26.0,9.0,-100.00,WNW,295,4.0,12.0,49,0.00,,,0.00,0.000000,,2013-01-19 05:42:00,
2013-01-18 22:52:00,26.0,9.0,-100.00,WNW,297,5.0,13.0,48,0.00,,,0.00,0.000000,,2013-01-19 05:52:00,
2013-01-18 23:12:00,26.0,9.0,-100.00,WNW,297,5.0,13.0,48,0.00,,,0.00,0.000000,,2013-01-19 06:12:00,
2013-01-18 23:22:00,26.0,9.0,-100.00,WNW,297,5.0,13.0,48,0.00,,,0.00,0.000000,,2013-01-19 06:22:00,
2013-01-18 23:32:00,26.0,9.0,-100.00,WNW,297,5.0,13.0,48,0.00,,,0.00,0.000000,,2013-01-19 06:32:00,
2013-01-18 23:43:00,26.0,9.0,-100.00,WNW,297,5.0,13.0,48,0.00,,,0.00,0.000000,,2013-01-19 06:43:00,
2013-01-18 23:52:00,26.0,9.0,-100.00,WNW,299,3.0,10.0,47,0.00,,,0.00,0.000000,,2013-01-19 06:52:00,